(467420) = 2005 UC166 = 2015 AU62

Discovered at Kitt Peak on 2005-10-24 by Spacewatch.

Orbit

Orbit type: Main Belt

Note: WebGL enabled browser required.

epoch2024-03-31.0
epoch JD2460400.5
perihelion date2020-10-13.56050
perihelion JD2459136.06050
argument of perihelion (°)34.73289
ascending node (°)227.59248
inclination (°)2.88173
eccentricity0.1242154
perihelion distance (AU)2.2404857
Tisserand w.r.t. Jupiter3.4
ΔV w.r.t. Earth (km/sec)9.4
semimajor axis (AU)2.5582612
mean anomaly (°)304.56822
mean daily motion (°/day)0.24087210
aphelion distance (AU)2.876
period (years)4.09
P-vector [x]-0.13407927
P-vector [y]-0.92021176
P-vector [z]-0.36774049
Q-vector [x]0.99027511
Q-vector [y]-0.13831892
Q-vector [z]-0.01493624
absolute magnitude17.54
phase slope0.15
uncertainty0
referenceMPEC 2024-F50
observations used198
oppositions14
arc length (days)8163
first opposition used2001
last opposition used2024
residual rms (arc-secs)0.80
perturbers coarse indicatorM-v
perturbers precise indicator003Ek
first observation date used2001-11-12.0
last observation date used2024-03-19.0
computer nameMPCLINUX
Minimum Orbit Intersection Distances (in AU)
for orbit epoch: 2460400.5, reference: E2024-G77
Mercury1.77648
Venus1.51465
Earth1.22555
Mars0.72676
Jupiter2.17371
Saturn6.16821
Uranus15.8053
Neptune27.0165

Observations

205 total observations over interval: 2001 11 12.32911 – 2024 03 19.525304
These data are available for download (format description).

Date (UT) J2000 RA J2000 Dec Magn Location Ref
2001 11 12.32911 02 52 14.38 +16 34 38.9 22.0 V 291 – LPL/Spacewatch II MPS 562580
2001 11 12.35191 02 52 13.08 +16 34 31.2 21.1 V 291 – LPL/Spacewatch II MPS 562580
2001 11 12.37402 02 52 11.78 +16 34 24.8 21.7 V 291 – LPL/Spacewatch II MPS 562580
2005 10 24.20734 02 26 59.62 +15 29 59.2 21.6 V 691 – Steward Observatory, Kitt Peak-Spacewatch MPS 149797
2005 10 24.22473 02 26 58.63 +15 29 53.4 21.2 V 691 – Steward Observatory, Kitt Peak-Spacewatch MPS 149797
2005 10 24.24205 02 26 57.66 +15 29 48.2 21.0 V 691 – Steward Observatory, Kitt Peak-Spacewatch MPS 149797
2005 10 28.19803 02 23 19.29 +15 08 05.4 21.2 V 691 – Steward Observatory, Kitt Peak-Spacewatch MPS 149797
2005 10 28.21540 02 23 18.29 +15 08 00.1 21.0 V 691 – Steward Observatory, Kitt Peak-Spacewatch MPS 149797
2005 10 28.23279 02 23 17.29 +15 07 54.0 21.0 V 691 – Steward Observatory, Kitt Peak-Spacewatch MPS 149797
2005 11 01.17927 02 19 38.41 +14 45 45.2 20.6 V 691 – Steward Observatory, Kitt Peak-Spacewatch MPS 312392
2005 11 01.19662 02 19 37.40 +14 45 39.4 21.0 V 691 – Steward Observatory, Kitt Peak-Spacewatch MPS 312392
2005 11 01.21389 02 19 36.43 +14 45 33.5 21.1 V 691 – Steward Observatory, Kitt Peak-Spacewatch MPS 312392
2007 02 17.24825 08 06 21.42 +15 54 29.3 21.4 V G96 – Mt. Lemmon Survey MPS 562580
2007 02 17.25272 08 06 21.31 +15 54 31.5 21.9 V G96 – Mt. Lemmon Survey MPS 562580
2007 02 17.25719 08 06 21.16 +15 54 32.6 22.2 V G96 – Mt. Lemmon Survey MPS 562580
2007 02 17.26163 08 06 20.95 +15 54 34.1 22.0 V G96 – Mt. Lemmon Survey MPS 562580
2009 09 22.43346 02 09 07.38 +14 59 07.4 21.2 V 691 – Steward Observatory, Kitt Peak-Spacewatch MPS 562580
2009 09 22.45113 02 09 06.74 +14 59 04.0 22.0 V 691 – Steward Observatory, Kitt Peak-Spacewatch MPS 562580
2009 09 22.46882 02 09 06.16 +14 59 00.8 21.3 V 691 – Steward Observatory, Kitt Peak-Spacewatch MPS 562580
2009 10 14.33536 01 52 52.57 +13 17 33.8 21.3 V G96 – Mt. Lemmon Survey MPS 562580
2009 10 14.34201 01 52 52.17 +13 17 31.6 20.6 V G96 – Mt. Lemmon Survey MPS 562580
2009 10 14.34883 01 52 51.78 +13 17 28.7 20.8 V G96 – Mt. Lemmon Survey MPS 562580
2009 10 14.35573 01 52 51.52 +13 17 27.2 22.4 V G96 – Mt. Lemmon Survey MPS 562580
2009 11 20.06784 01 24 33.47 +09 54 13.1 21.6 V 691 – Steward Observatory, Kitt Peak-Spacewatch MPS 562580
2009 11 20.09169 01 24 32.78 +09 54 07.8 21.4 V 691 – Steward Observatory, Kitt Peak-Spacewatch MPS 562580
2009 11 20.11556 01 24 32.09 +09 54 02.1 21.5 V 691 – Steward Observatory, Kitt Peak-Spacewatch MPS 562580
2011 01 11.29401 07 59 00.88 +16 27 34.5 22.0 V G96 – Mt. Lemmon Survey MPS 562580
2011 01 11.29921 07 59 00.56 +16 27 36.0 22.2 V G96 – Mt. Lemmon Survey MPS 562580
2011 01 11.30449 07 59 00.27 +16 27 36.9 22.7 V G96 – Mt. Lemmon Survey MPS 562580
2011 01 11.30976 07 58 59.95 +16 27 36.7 21.6 V G96 – Mt. Lemmon Survey MPS 562580
2012 05 01.41705 15 53 52.76 -19 54 10.2 19.9 V G96 – Mt. Lemmon Survey MPS 562580
2012 05 01.42230 15 53 52.47 -19 54 09.0 20.4 V G96 – Mt. Lemmon Survey MPS 562580
2012 05 01.42759 15 53 52.29 -19 54 07.5 19.8 V G96 – Mt. Lemmon Survey MPS 562580
2012 05 01.43286 15 53 52.04 -19 54 06.4 19.8 V G96 – Mt. Lemmon Survey MPS 562580
2012 05 27.27596 15 31 40.00 -17 57 42.9 19.8 V G96 – Mt. Lemmon Survey MPS 562580
2012 05 27.28222 15 31 39.68 -17 57 41.4 19.9 V G96 – Mt. Lemmon Survey MPS 562580
2012 05 27.28854 15 31 39.32 -17 57 39.6 20.2 V G96 – Mt. Lemmon Survey MPS 562580
2012 05 27.29490 15 31 38.96 -17 57 38.0 19.9 V G96 – Mt. Lemmon Survey MPS 562580
2012 06 12.23435 15 20 23.35 -16 54 02.7 20.5 V G96 – Mt. Lemmon Survey MPS 562580
2012 06 12.24354 15 20 23.06 -16 54 00.9 20.3 V G96 – Mt. Lemmon Survey MPS 562580
2012 06 12.25277 15 20 22.74 -16 53 58.9 20.6 V G96 – Mt. Lemmon Survey MPS 562580
2012 06 12.26198 15 20 22.48 -16 53 56.1 19.8 V G96 – Mt. Lemmon Survey MPS 562580
2013 09 15.55397 01 31 23.074 +12 12 10.62 21.4 w F51 – Pan-STARRS 1, Haleakala MPS 562580
2013 09 15.56771 01 31 22.586 +12 12 07.61 21.5 w F51 – Pan-STARRS 1, Haleakala MPS 562580
2013 09 15.58155 01 31 22.078 +12 12 04.79 21.4 w F51 – Pan-STARRS 1, Haleakala MPS 562580
2013 09 15.59540 01 31 21.569 +12 12 01.50 21.6 w F51 – Pan-STARRS 1, Haleakala MPS 562580
2015 01 13.34114 07 15 49.425 +18 23 05.16 21.3 w F51 – Pan-STARRS 1, Haleakala MPS 562948
2015 01 13.35472 07 15 48.580 +18 23 06.52 21.1 w F51 – Pan-STARRS 1, Haleakala MPS 562948
2015 01 13.38174 07 15 46.890 +18 23 08.94 21.2 w F51 – Pan-STARRS 1, Haleakala MPS 562948
2015 01 16.33222 07 12 48.706 +18 27 48.42 21.4 w F51 – Pan-STARRS 1, Haleakala MPS 562948
2015 01 16.34435 07 12 47.966 +18 27 49.41 21.3 w F51 – Pan-STARRS 1, Haleakala MPS 562948
2015 01 16.35661 07 12 47.204 +18 27 50.75 21.3 w F51 – Pan-STARRS 1, Haleakala MPS 562948
2016 04 30.37585 14 42 00.50 -16 16 41.1 19.6 V G96 – Mt. Lemmon Survey MPS 706046
2016 04 30.37999 14 42 00.31 -16 16 39.2 20.4 V G96 – Mt. Lemmon Survey MPS 706046
2016 04 30.38408 14 42 00.04 -16 16 38.1 20.2 V G96 – Mt. Lemmon Survey MPS 706046
2016 04 30.38820 14 41 59.79 -16 16 37.1 19.6 V G96 – Mt. Lemmon Survey MPS 706046
2016 05 01.34181 14 41 09.38 -16 11 06.8 20.1 V W84 – Cerro Tololo-DECam MPS 790846
2016 05 01.34499 14 41 09.21 -16 11 05.6   W84 – Cerro Tololo-DECam MPS 790846
2016 05 01.34816 14 41 09.03 -16 11 04.7   W84 – Cerro Tololo-DECam MPS 790846
2016 05 01.35135 14 41 08.86 -16 11 03.5   W84 – Cerro Tololo-DECam MPS 790846
2016 05 01.35453 14 41 08.68 -16 11 02.4   W84 – Cerro Tololo-DECam MPS 790846
2016 05 03.37727 14 39 21.51 -15 59 30.7 20.1 V W84 – Cerro Tololo-DECam MPS 790846
2016 05 03.38043 14 39 21.34 -15 59 29.6   W84 – Cerro Tololo-DECam MPS 790846
2016 05 03.38360 14 39 21.16 -15 59 28.4   W84 – Cerro Tololo-DECam MPS 790846
2016 05 03.38679 14 39 20.99 -15 59 27.2   W84 – Cerro Tololo-DECam MPS 790846
2016 05 04.34833 14 38 30.06 -15 53 56.3 20.6 V W84 – Cerro Tololo-DECam MPS 790846
2016 05 04.35150 14 38 29.88 -15 53 55.3   W84 – Cerro Tololo-DECam MPS 790846
2016 05 04.35468 14 38 29.70 -15 53 53.9   W84 – Cerro Tololo-DECam MPS 790846
2016 05 04.36105 14 38 29.37 -15 53 51.9   W84 – Cerro Tololo-DECam MPS 790846
2016 05 08.24695 14 35 05.35 -15 31 34.8 20.3 V G96 – Mt. Lemmon Survey MPS 708316
2016 05 08.25148 14 35 05.09 -15 31 33.2 20.1 V G96 – Mt. Lemmon Survey MPS 708316
2016 05 08.25601 14 35 04.84 -15 31 32.1 20.3 V G96 – Mt. Lemmon Survey MPS 708316
2016 05 08.26056 14 35 04.61 -15 31 29.9 19.9 V G96 – Mt. Lemmon Survey MPS 708316
2016 05 10.26571 14 33 21.14 -15 19 58.8 20.0 r G45 – Space Surveillance Telescope, Atom Site MPS 708316
2016 05 10.27093 14 33 20.86 -15 19 56.8 20.6 r G45 – Space Surveillance Telescope, Atom Site MPS 708316
2016 05 10.27474 14 33 20.64 -15 19 55.6 20.5 r G45 – Space Surveillance Telescope, Atom Site MPS 708316
2016 05 10.27575 14 33 20.62 -15 19 55.4 20.2 r G45 – Space Surveillance Telescope, Atom Site MPS 708316
2016 05 10.27976 14 33 20.40 -15 19 53.1 20.4 r G45 – Space Surveillance Telescope, Atom Site MPS 708316
2016 05 10.28444 14 33 20.13 -15 19 52.1 20.1 r G45 – Space Surveillance Telescope, Atom Site MPS 708316
2016 05 10.28565 14 33 20.05 -15 19 50.8 19.7 r G45 – Space Surveillance Telescope, Atom Site MPS 708316
2016 06 06.25728 14 17 00.35 -13 16 24.7 20.3 V G96 – Mt. Lemmon Survey MPS 716644
2016 06 06.26285 14 17 00.25 -13 16 24.5 20.3 V G96 – Mt. Lemmon Survey MPS 716644
2016 06 06.26842 14 17 00.18 -13 16 23.6 21.0 V G96 – Mt. Lemmon Survey MPS 716644
2016 06 06.27399 14 16 59.96 -13 16 22.5 20.3 V G96 – Mt. Lemmon Survey MPS 716644
2016 06 29.27930 14 18 31.145 -12 55 58.58 21.3 w F51 – Pan-STARRS 1, Haleakala MPS 717391
2016 06 29.29163 14 18 31.401 -12 55 59.38 21.3 w F51 – Pan-STARRS 1, Haleakala MPS 717391
2016 06 29.30401 14 18 31.669 -12 56 00.08 21.3 w F51 – Pan-STARRS 1, Haleakala MPS 717391
2016 06 29.31630 14 18 31.926 -12 56 00.76 21.2 w F51 – Pan-STARRS 1, Haleakala MPS 717391
2017 09 27.35009 00 35 53.84 +07 05 09.5 21.0 V G96 – Mt. Lemmon Survey MPS 823302
2017 09 27.35540 00 35 53.55 +07 05 07.0 21.3 V G96 – Mt. Lemmon Survey MPS 823302
2017 09 27.36072 00 35 53.24 +07 05 04.6 20.4 V G96 – Mt. Lemmon Survey MPS 823302
2017 09 27.36602 00 35 53.00 +07 05 02.3 20.6 V G96 – Mt. Lemmon Survey MPS 823302
2017 10 16.23487 00 20 17.05 +05 03 02.6 21.4 G G96 – Mt. Lemmon Survey MPS 871486
2017 10 16.24008 00 20 16.83 +05 03 00.5 21.0 G G96 – Mt. Lemmon Survey MPS 871486
2017 10 16.24530 00 20 16.56 +05 02 59.1 21.1 G G96 – Mt. Lemmon Survey MPS 871486
